TimeAKDT,TemperatureF,Dew PointF,Humidity,Sea Level PressureIn,VisibilityMPH,Wind Direction,Wind SpeedMPH,Gust SpeedMPH,PrecipitationIn,Events,Conditions,WindDirDegrees,DateUTC
12:16 AM,24.8,21.2,86,29.50,10.0,Calm,Calm,-,N/A,,Clear,0,2011-10-11 08:16:00
12:36 AM,24.8,21.2,86,29.50,10.0,Calm,Calm,-,N/A,,Clear,0,2011-10-11 08:36:00
12:56 AM,24.8,21.2,86,29.51,10.0,Calm,Calm,-,N/A,,Clear,0,2011-10-11 08:56:00
1:16 AM,24.8,19.4,80,29.51,10.0,Calm,Calm,-,N/A,,Clear,0,2011-10-11 09:16:00
1:36 AM,24.8,19.4,80,29.51,10.0,Calm,Calm,-,N/A,,Clear,0,2011-10-11 09:36:00
1:56 AM,24.8,21.2,86,29.51,10.0,Calm,Calm,-,N/A,,Clear,0,2011-10-11 09:56:00
2:16 AM,23.0,19.4,86,29.51,10.0,Calm,Calm,-,N/A,,Clear,0,2011-10-11 10:16:00
2:36 AM,23.0,19.4,86,29.51,10.0,Calm,Calm,-,N/A,,Clear,0,2011-10-11 10:36:00
2:56 AM,21.2,19.4,93,29.51,10.0,Calm,Calm,-,N/A,,Clear,0,2011-10-11 10:56:00
3:16 AM,21.2,19.4,93,29.50,10.0,Calm,Calm,-,N/A,,Clear,0,2011-10-11 11:16:00
3:36 AM,21.2,17.6,86,29.50,10.0,Calm,Calm,-,N/A,,Clear,0,2011-10-11 11:36:00
3:56 AM,21.2,17.6,86,29.50,10.0,Calm,Calm,-,N/A,,Clear,0,2011-10-11 11:56:00
4:16 AM,21.2,19.4,93,29.50,10.0,Calm,Calm,-,N/A,,Clear,0,2011-10-11 12:16:00
4:36 AM,21.2,17.6,86,29.50,10.0,Calm,Calm,-,N/A,,Clear,0,2011-10-11 12:36:00
5:16 AM,21.2,17.6,86,29.50,10.0,Calm,Calm,-,N/A,,Clear,0,2011-10-11 13:16:00
5:36 AM,21.2,17.6,86,29.51,10.0,Calm,Calm,-,N/A,,Clear,0,2011-10-11 13:36:00
5:56 AM,19.4,15.8,86,29.51,10.0,Calm,Calm,-,N/A,,Clear,0,2011-10-11 13:56:00
6:16 AM,21.2,19.4,93,29.51,10.0,East,3.5,-,N/A,,Clear,100,2011-10-11 14:16:00
6:36 AM,21.2,17.6,86,29.52,10.0,Calm,Calm,-,N/A,,Clear,0,2011-10-11 14:36:00
6:56 AM,19.4,17.6,93,29.52,10.0,East,3.5,-,N/A,,Clear,80,2011-10-11 14:56:00
7:16 AM,21.2,19.4,93,29.52,10.0,East,4.6,-,N/A,,Clear,90,2011-10-11 15:16:00
7:36 AM,21.2,19.4,93,29.53,10.0,ENE,4.6,-,N/A,,Clear,60,2011-10-11 15:36:00
7:56 AM,21.2,15.8,80,29.53,10.0,East,3.5,-,N/A,,Clear,90,2011-10-11 15:56:00
8:16 AM,19.4,14.0,80,29.53,10.0,ENE,3.5,-,N/A,,Clear,70,2011-10-11 16:16:00
8:36 AM,21.2,17.6,86,29.54,10.0,East,4.6,-,N/A,,Clear,80,2011-10-11 16:36:00
8:56 AM,21.2,19.4,93,29.54,10.0,East,4.6,-,N/A,,Clear,90,2011-10-11 16:56:00
9:16 AM,19.4,15.8,86,29.54,10.0,Calm,Calm,-,N/A,,Clear,0,2011-10-11 17:16:00
9:36 AM,21.2,17.6,86,29.55,10.0,East,4.6,-,N/A,,Clear,80,2011-10-11 17:36:00
9:56 AM,23.0,21.2,93,29.55,10.0,East,4.6,-,N/A,,Clear,90,2011-10-11 17:56:00
10:16 AM,24.8,23.0,93,29.55,10.0,East,3.5,-,N/A,,Clear,90,2011-10-11 18:16:00
10:36 AM,26.6,23.0,86,29.55,10.0,East,3.5,-,N/A,,Clear,80,2011-10-11 18:36:00
10:56 AM,26.6,24.8,93,29.55,10.0,East,3.5,-,N/A,,Clear,90,2011-10-11 18:56:00
11:16 AM,30.2,26.6,86,29.56,10.0,Calm,Calm,-,N/A,,Clear,0,2011-10-11 19:16:00
11:36 AM,32.0,26.6,80,29.56,10.0,Calm,Calm,-,N/A,,Clear,0,2011-10-11 19:36:00
12:16 PM,37.4,28.4,70,29.56,10.0,Calm,Calm,-,N/A,,Clear,0,2011-10-11 20:16:00
12:36 PM,37.4,28.4,70,29.57,10.0,Calm,Calm,-,N/A,,Clear,0,2011-10-11 20:36:00
12:56 PM,39.2,26.6,61,29.57,10.0,Calm,Calm,-,N/A,,Clear,0,2011-10-11 20:56:00
1:16 PM,39.2,28.4,65,29.57,10.0,Calm,Calm,-,N/A,,Clear,0,2011-10-11 21:16:00
1:36 PM,42.8,26.6,53,29.57,10.0,Calm,Calm,-,N/A,,Clear,0,2011-10-11 21:36:00
1:56 PM,42.8,26.6,53,29.57,10.0,NNE,5.8,-,N/A,,Clear,30,2011-10-11 21:56:00
2:16 PM,42.8,26.6,53,29.57,10.0,NE,9.2,-,N/A,,Clear,40,2011-10-11 22:16:00
2:36 PM,44.6,24.8,46,29.57,10.0,NNE,6.9,-,N/A,,Clear,20,2011-10-11 22:36:00
2:56 PM,44.6,24.8,46,29.57,10.0,NNE,5.8,-,N/A,,Clear,30,2011-10-11 22:56:00
3:16 PM,44.6,24.8,46,29.57,10.0,NNE,5.8,-,N/A,,Clear,30,2011-10-11 23:16:00
3:36 PM,44.6,23.0,43,29.57,10.0,NNE,9.2,-,N/A,,Clear,20,2011-10-11 23:36:00
3:56 PM,46.4,21.2,37,29.57,10.0,North,10.4,-,N/A,,Clear,360,2011-10-11 23:56:00
4:16 PM,46.4,21.2,37,29.57,10.0,North,8.1,-,N/A,,Clear,360,2011-10-12 00:16:00
4:36 PM,46.4,21.2,37,29.57,10.0,NNE,6.9,-,N/A,,Clear,20,2011-10-12 00:36:00
4:56 PM,46.4,21.2,37,29.57,10.0,North,6.9,-,N/A,,Clear,10,2011-10-12 00:56:00
5:16 PM,46.4,21.2,37,29.58,10.0,North,5.8,-,N/A,,Clear,360,2011-10-12 01:16:00
5:36 PM,46.4,21.2,37,29.58,10.0,NNW,4.6,-,N/A,,Clear,330,2011-10-12 01:36:00
5:56 PM,46.4,23.0,40,29.59,10.0,North,5.8,-,N/A,,Clear,350,2011-10-12 01:56:00
6:16 PM,44.6,28.4,53,29.59,10.0,NW,8.1,-,N/A,,Clear,310,2011-10-12 02:16:00
6:36 PM,44.6,28.4,53,29.60,10.0,WNW,6.9,-,N/A,,Clear,300,2011-10-12 02:36:00
6:56 PM,42.8,28.4,57,29.60,10.0,West,4.6,-,N/A,,Clear,280,2011-10-12 02:56:00
7:16 PM,41.0,28.4,61,29.61,10.0,West,4.6,-,N/A,,Clear,270,2011-10-12 03:16:00
7:36 PM,37.4,26.6,65,29.61,10.0,West,3.5,-,N/A,,Clear,270,2011-10-12 03:36:00
7:56 PM,33.8,26.6,75,29.62,10.0,Calm,Calm,-,N/A,,Clear,0,2011-10-12 03:56:00
8:16 PM,32.0,26.6,80,29.62,10.0,Calm,Calm,-,N/A,,Clear,0,2011-10-12 04:16:00
8:36 PM,30.2,24.8,80,29.63,-9999.0,Calm,Calm,-,N/A,,Clear,0,2011-10-12 04:36:00
8:56 PM,30.2,24.8,80,29.63,-9999.0,Calm,Calm,-,N/A,,Clear,0,2011-10-12 04:56:00
9:16 PM,28.4,23.0,80,29.65,-9999.0,Calm,Calm,-,N/A,,Clear,0,2011-10-12 05:16:00
9:36 PM,28.4,24.8,86,29.65,-9999.0,Calm,Calm,-,N/A,,Unknown,0,2011-10-12 05:36:00
9:56 PM,28.4,24.8,86,29.66,-9999.0,Calm,Calm,-,N/A,,Unknown,0,2011-10-12 05:56:00
10:16 PM,26.6,21.2,80,29.67,-9999.0,Calm,Calm,-,N/A,,Clear,0,2011-10-12 06:16:00
10:36 PM,28.4,24.8,86,29.68,10.0,Calm,Calm,-,N/A,,Clear,0,2011-10-12 06:36:00
10:56 PM,28.4,24.8,86,29.69,-9999.0,Calm,Calm,-,N/A,,Unknown,0,2011-10-12 06:56:00
11:16 PM,28.4,23.0,80,29.69,-9999.0,Calm,Calm,-,N/A,,Clear,0,2011-10-12 07:16:00
11:36 PM,30.2,23.0,75,29.70,-9999.0,Calm,Calm,-,N/A,,Clear,0,2011-10-12 07:36:00
11:56 PM,35.6,23.0,60,29.71,-9999.0,Calm,Calm,-,N/A,,Clear,0,2011-10-12 07:56:00